Sigfox identifier Datetime Temperature Humidity SNR
0038713B 2018-10-09 08:36:38 20.7 39 18
0038713B 2018-10-09 07:32:08 20.7 39 17.9
0038713B 2018-10-09 06:27:32 20.7 39 17.9
0038713B 2018-10-09 05:22:55 20.7 38 17.8
0038713B 2018-10-09 02:09:15 20.6 38 17.8
0038713B 2018-10-09 01:04:40 20.6 38 17.8
0038713B 2018-10-09 00:00:06 20.5 38 19.9
0038713B 2018-10-08 22:55:33 20.6 38 19.9
0038713B 2018-10-08 21:51:00 20.5 38 19.9
0038713B 2018-10-08 20:46:27 20.5 38 19.8
0038713B 2018-10-08 19:41:52 20.5 38 19.9
0038713B 2018-10-08 18:37:15 20.5 38 19.9
0038713B 2018-10-08 17:32:40 20.5 37 19.8
0038713B 2018-10-08 16:28:01 20.5 37 19.9
0038713B 2018-10-08 14:18:51 20.3 36 19.8
0038713B 2018-10-08 13:14:19 20.3 36 19.9
0038713B 2018-10-08 12:09:44 20.3 36 19.9
0038713B 2018-10-08 10:00:34 20.3 37 19.9
0038713B 2018-10-08 08:56:00 20.3 37 19.9
0038713B 2018-10-08 05:42:17 20.3 38 17.6
0038713B 2018-10-08 04:37:41 20.3 38 17.6
0038713B 2018-10-08 03:33:06 20.5 39 17.6
0038713B 2018-10-08 02:28:37 20.5 39 17.6
0038713B 2018-10-08 01:23:58 20.5 39 17.6
0038713B 2018-10-08 00:19:23 20.5 39 17.7
0038713B 2018-10-07 23:14:50 20.5 39 17.6
0038713B 2018-10-07 22:10:19 20.5 39 17.7
0038713B 2018-10-07 21:05:50 20.5 39 17.6
0038713B 2018-10-07 20:01:15 20.5 39 17.6
0038713B 2018-10-07 18:56:44 20.5 39 17.5
0038713B 2018-10-07 17:52:06 20.6 39 17.4
0038713B 2018-10-07 16:47:33 20.6 39 11.8
0038713B 2018-10-07 15:42:57 20.6 39 12
0038713B 2018-10-07 14:38:23 20.7 39 12.2
0038713B 2018-10-07 13:33:51 20.6 39 12.6
0038713B 2018-10-07 12:29:10 20.7 39 12.4
0038713B 2018-10-07 11:24:21 20.7 39 12.2
0038713B 2018-10-07 10:19:39 20.7 39 12
0038713B 2018-10-07 09:15:07 20.7 39 12.2
0038713B 2018-10-07 08:10:35 20.7 40 12.2
0038713B 2018-10-07 07:06:03 20.7 40 11.9
0038713B 2018-10-07 03:52:20 20.7 40 11.9
0038713B 2018-10-07 02:47:46 20.8 40 11.7
0038713B 2018-10-07 01:43:11 20.8 40 11.9
0038713B 2018-10-07 00:38:35 20.8 40 11.6
0038713B 2018-10-06 23:34:01 20.8 40 11.6
0038713B 2018-10-06 22:29:28 20.9 40 11.5
0038713B 2018-10-06 21:24:52 20.9 40 11.8
0038713B 2018-10-06 20:20:19 21 40 12
0038713B 2018-10-06 19:15:45 21 40 11.7
0038713B 2018-10-06 18:11:16 20.9 40 11.9
0038713B 2018-10-06 17:06:40 21 40 11.5
0038713B 2018-10-06 16:02:04 20.9 40 11.7
0038713B 2018-10-06 14:57:28 21 40 12.1
0038713B 2018-10-06 13:52:54 21 40 11.9
0038713B 2018-10-06 12:48:20 21 40 12
0038713B 2018-10-06 11:43:46 21 40 12.2
0038713B 2018-10-06 10:39:15 21 40 11.8
0038713B 2018-10-06 09:34:39 21 40 11.7
0038713B 2018-10-06 08:30:01 21 40 11.3
0038713B 2018-10-06 07:25:25 21.1 40 11.5
0038713B 2018-10-06 06:20:49 21.1 40 11.5
0038713B 2018-10-06 05:16:20 21.1 40 11.5
0038713B 2018-10-06 04:11:46 21.2 41 11.1
0038713B 2018-10-06 03:07:07 21.1 41 11.3
0038713B 2018-10-06 00:57:54 21.1 41 11.3
0038713B 2018-10-05 23:53:22 21.2 41 11.3
0038713B 2018-10-05 22:48:49 21.2 41 11.4
0038713B 2018-10-05 21:44:13 21.2 41 11.3
0038713B 2018-10-05 20:39:40 21.1 41 11.3
0038713B 2018-10-05 19:35:05 21.2 41 11.3
0038713B 2018-10-05 18:30:31 21.2 40 12.8
0038713B 2018-10-05 17:25:57 21.1 40 12.5
0038713B 2018-10-05 15:16:52 21 39 12.5
0038713B 2018-10-05 14:12:13 21 38 12.4
0038713B 2018-10-05 13:07:40 21 37 12.6
0038713B 2018-10-05 10:58:31 20.7 34 12.5
0038713B 2018-10-05 08:49:20 20.7 33 12.4
0038713B 2018-10-05 07:44:46 20.7 33 12.1
0038713B 2018-10-05 06:40:07 20.7 33 12.1
0038713B 2018-10-05 05:35:32 20.7 33 12.2
0038713B 2018-10-05 04:31:03 20.7 33 12.1
0038713B 2018-10-05 03:26:26 20.7 33 12.1
0038713B 2018-10-05 02:21:53 20.7 33 12.2
0038713B 2018-10-05 01:17:18 20.7 33 12.1
0038713B 2018-10-04 22:03:30 20.7 33 12.1
0038713B 2018-10-04 20:58:53 20.7 32 12.1
0038713B 2018-10-04 19:54:16 20.5 32 12.3
0038713B 2018-10-04 18:49:41 20.5 32 12.4
0038713B 2018-10-04 17:45:04 20.5 33 12.6
0038713B 2018-10-04 16:40:34 20.5 33 12.5
0038713B 2018-10-04 08:03:47 20.3 37 12.9
0038713B 2018-10-04 06:59:13 20.3 38 12.9
0038713B 2018-10-04 03:45:22 20.4 39 13
0038713B 2018-10-04 02:40:45 20.4 39 13.2
0038713B 2018-10-03 21:17:53 20.5 41 13.3
0038713B 2018-10-03 16:59:31 20.6 41 12.1
0038713B 2018-10-03 14:50:25 20.5 41 12.1
0038713B 2018-10-03 08:22:53 20.3 40 11.9
0038713B 2018-10-03 07:18:17 20.3 40 12.1
0038713B 2018-10-03 06:13:41 20.3 40 11.9
0038713B 2018-10-03 05:09:03 20.4 41 12.1
0038713B 2018-10-03 04:04:26 20.3 41 12.2
0038713B 2018-10-03 02:59:47 20.4 41 12.3
0038713B 2018-10-03 01:55:09 20.5 41 12.4
0038713B 2018-10-03 00:50:32 20.5 41 12.4
0038713B 2018-10-02 23:45:54 20.5 41 12.4
0038713B 2018-10-02 22:41:20 20.5 41 12.5
0038713B 2018-10-02 21:36:42 20.5 41 12.5
0038713B 2018-10-02 20:32:05 20.5 41 12.7
0038713B 2018-10-02 19:27:29 20.5 41 12.6
0038713B 2018-10-02 18:22:51 20.7 40 12.7
0038713B 2018-10-02 16:13:39 20.6 40 12.6
0038713B 2018-10-02 14:04:24 20.5 40 12.7
0038713B 2018-10-02 12:59:48 20.5 41 12.5
0038713B 2018-10-02 11:55:14 20.5 43 12.7
0038713B 2018-10-02 09:45:59 20.3 42 12.2
0038713B 2018-10-02 07:36:49 20.3 40 12.3
0038713B 2018-10-02 06:32:17 20.5 43 12.2
0038713B 2018-10-02 05:27:41 20.5 43 12.1
0038713B 2018-10-02 04:23:08 20.5 43 12
0038713B 2018-10-02 03:18:35 20.5 43 12
0038713B 2018-10-02 01:09:27 20.5 43 12.3
0038713B 2018-10-01 23:00:22 20.5 43 12.8
0038713B 2018-10-01 21:55:50 20.5 43 12.8
0038713B 2018-10-01 20:51:19 20.5 43 13.4
0038713B 2018-10-01 18:42:16 20.2 43 13.1
0038713B 2018-10-01 17:37:45 19.9 43 13.8
0038713B 2018-10-01 16:33:13 19.9 45 14.4
0038713B 2018-10-01 15:28:38 17.4 62 0